AEZ2135 LICB-LIMZ

Flight info

Callsign AEZ2135
Flight time 1h 32m
Altitude 38000
Route ENEPA DCT DORAS DCT TINTO DCT DOBIM R16 GUNPI DCT LAGEN
Aircraft B738/M-SDE2E3FGHIRWXY/LB1

Departure

Time 2026-05-09 00:27
Airport Comiso Airport (LICB)

Arrival

Time 2026-05-09 01:59
Airport Cuneo International Airport (LIMZ)
Time Latitude Longitude Altitude Speed Heading
2026-05-09 00:18 36.99809 14.60797 726 ft 0 kts 338°
2026-05-09 00:23 36.99818 14.60803 715 ft 2 kts 46°
2026-05-09 00:24 36.99804 14.60843 723 ft 11 kts 144°
2026-05-09 00:24 36.99707 14.60791 721 ft 20 kts 211°
2026-05-09 00:24 36.99551 14.60708 720 ft 28 kts 203°
2026-05-09 00:24 36.99363 14.60558 723 ft 40 kts 223°
2026-05-09 00:25 36.99162 14.60272 721 ft 44 kts 232°
2026-05-09 00:25 36.98980 14.59997 723 ft 38 kts 230°
2026-05-09 00:25 36.98861 14.59767 723 ft 19 kts 261°
2026-05-09 00:25 36.98818 14.59720 724 ft 5 kts 117°
2026-05-09 00:26 36.98849 14.59794 722 ft 24 kts 51°
2026-05-09 00:26 36.99121 14.60198 719 ft 96 kts 49°
2026-05-09 00:26 36.99686 14.61040 718 ft 154 kts 50°
2026-05-09 00:26 37.00450 14.62157 1041 ft 174 kts 49°
2026-05-09 00:27 37.01288 14.63242 1608 ft 178 kts 28°
2026-05-09 00:27 37.02484 14.63522 2084 ft 180 kts 341°
2026-05-09 00:27 37.03573 14.62804 2744 ft 177 kts 325°
2026-05-09 00:27 37.04565 14.61781 3157 ft 198 kts 305°
2026-05-09 00:28 37.05059 14.60792 3291 ft 208 kts 298°
2026-05-09 00:28 37.05830 14.59173 3600 ft 223 kts 298°
2026-05-09 00:28 37.06662 14.57447 3853 ft 242 kts 299°
2026-05-09 00:28 37.07560 14.55577 4329 ft 255 kts 299°
2026-05-09 00:29 37.08462 14.53693 5210 ft 253 kts 298°
2026-05-09 00:29 37.09355 14.51826 6191 ft 247 kts 296°
2026-05-09 00:29 37.10416 14.50103 6972 ft 258 kts 314°
2026-05-09 00:29 37.11950 14.48861 7782 ft 266 kts 323°
2026-05-09 00:30 37.13587 14.47740 8582 ft 269 kts 323°
2026-05-09 00:30 37.15238 14.46616 9448 ft 271 kts 323°
2026-05-09 00:30 37.16903 14.45469 10231 ft 276 kts 322°
2026-05-09 00:30 37.18648 14.44247 10518 ft 300 kts 322°
2026-05-09 00:31 37.20545 14.42915 10699 ft 324 kts 323°
2026-05-09 00:31 37.22577 14.41471 10874 ft 346 kts 323°
2026-05-09 00:31 37.24696 14.39887 11135 ft 362 kts 322°
2026-05-09 00:31 37.26874 14.38237 11665 ft 368 kts 322°
2026-05-09 00:32 37.29071 14.36573 12354 ft 370 kts 322°
2026-05-09 00:32 37.31281 14.34901 13093 ft 371 kts 322°
2026-05-09 00:32 37.33504 14.33215 13722 ft 374 kts 324°
2026-05-09 00:32 37.35726 14.31539 14524 ft 372 kts 323°
2026-05-09 00:33 37.37959 14.29851 15042 ft 378 kts 323°
2026-05-09 00:33 37.40228 14.28133 15587 ft 383 kts 323°
2026-05-09 00:33 37.42520 14.26397 16164 ft 386 kts 323°
2026-05-09 00:33 37.44829 14.24649 16748 ft 389 kts 323°
2026-05-09 00:34 37.47153 14.22887 17310 ft 392 kts 323°
2026-05-09 00:34 37.49497 14.21108 17890 ft 395 kts 323°
2026-05-09 00:34 37.51864 14.19311 18423 ft 399 kts 323°
2026-05-09 00:34 37.54249 14.17498 18910 ft 402 kts 323°
2026-05-09 00:35 37.56616 14.15699 19411 ft 403 kts 323°
2026-05-09 00:35 37.59025 14.13866 19911 ft 406 kts 323°
2026-05-09 00:35 37.61482 14.11995 20396 ft 408 kts 323°
2026-05-09 00:35 37.63887 14.10161 20867 ft 410 kts 323°
2026-05-09 00:36 37.66371 14.08266 21325 ft 413 kts 323°
2026-05-09 00:36 37.68829 14.06387 21784 ft 416 kts 322°
2026-05-09 00:36 37.71312 14.04488 22230 ft 418 kts 322°
2026-05-09 00:36 37.73811 14.02578 22672 ft 420 kts 322°
2026-05-09 00:37 37.76282 14.00688 23093 ft 423 kts 323°
2026-05-09 00:37 37.78883 13.98897 23486 ft 431 kts 329°
2026-05-09 00:37 37.81669 13.97425 23856 ft 436 kts 332°
2026-05-09 00:37 37.84515 13.96050 24234 ft 438 kts 332°
2026-05-09 00:38 37.87375 13.94699 24570 ft 440 kts 332°
2026-05-09 00:38 37.90246 13.93332 24958 ft 441 kts 332°
2026-05-09 00:38 37.93118 13.91943 25295 ft 442 kts 332°
2026-05-09 00:38 37.95988 13.90532 25600 ft 444 kts 332°
2026-05-09 00:39 37.98870 13.89097 25890 ft 445 kts 332°
2026-05-09 00:39 38.01755 13.87650 26190 ft 447 kts 331°
2026-05-09 00:39 38.04652 13.86189 26482 ft 449 kts 331°
2026-05-09 00:39 38.07556 13.84722 26803 ft 450 kts 331°
2026-05-09 00:40 38.10469 13.83249 27099 ft 451 kts 331°
2026-05-09 00:40 38.13383 13.81775 27400 ft 452 kts 331°
2026-05-09 00:40 38.16303 13.80298 27735 ft 451 kts 331°
2026-05-09 00:41 38.22107 13.77361 28571 ft 447 kts 331°
2026-05-09 00:41 38.24987 13.75902 28988 ft 445 kts 331°
2026-05-09 00:41 38.27858 13.74445 29390 ft 444 kts 331°
2026-05-09 00:41 38.30722 13.72989 29800 ft 442 kts 331°
2026-05-09 00:42 38.33571 13.71540 30282 ft 439 kts 331°
2026-05-09 00:42 38.36397 13.70104 30753 ft 435 kts 331°
2026-05-09 00:42 38.39202 13.68676 31141 ft 434 kts 331°
2026-05-09 00:42 38.42000 13.67248 31451 ft 433 kts 331°
2026-05-09 00:43 38.44797 13.65819 31771 ft 433 kts 330°
2026-05-09 00:43 38.47583 13.64395 32134 ft 431 kts 330°
2026-05-09 00:43 38.50361 13.62975 32506 ft 429 kts 330°
2026-05-09 00:43 38.53130 13.61559 32855 ft 428 kts 330°
2026-05-09 00:44 38.55891 13.60144 33233 ft 427 kts 330°
2026-05-09 00:44 38.58630 13.58743 33744 ft 421 kts 330°
2026-05-09 00:44 38.61342 13.57354 34137 ft 419 kts 330°
2026-05-09 00:44 38.64050 13.55963 34375 ft 420 kts 330°
2026-05-09 00:45 38.66762 13.54567 34594 ft 420 kts 329°
2026-05-09 00:45 38.69472 13.53173 34883 ft 419 kts 329°
2026-05-09 00:45 38.72171 13.51784 35184 ft 417 kts 329°
2026-05-09 00:45 38.74860 13.50399 35455 ft 417 kts 329°
2026-05-09 00:46 38.77550 13.49013 35680 ft 417 kts 329°
2026-05-09 00:46 38.80244 13.47622 35898 ft 417 kts 329°
2026-05-09 00:46 38.82934 13.46233 36045 ft 419 kts 329°
2026-05-09 00:46 38.85639 13.44833 36053 ft 420 kts 329°
2026-05-09 00:47 38.91046 13.42039 36044 ft 416 kts 329°
2026-05-09 00:47 38.96390 13.39274 36049 ft 413 kts 329°
2026-05-09 00:48 39.01712 13.36511 36050 ft 412 kts 329°
2026-05-09 00:48 39.07022 13.33749 36058 ft 412 kts 328°
2026-05-09 00:49 39.12329 13.30985 36049 ft 411 kts 328°
2026-05-09 00:49 39.17635 13.28218 36050 ft 412 kts 328°
2026-05-09 00:50 39.22912 13.25461 36052 ft 412 kts 328°
2026-05-09 00:50 39.28266 13.22659 36095 ft 413 kts 328°
2026-05-09 00:51 39.33552 13.19889 36060 ft 412 kts 328°
2026-05-09 00:51 39.38867 13.17099 36050 ft 412 kts 328°
2026-05-09 00:52 39.44173 13.14308 36055 ft 411 kts 328°
2026-05-09 00:52 39.49471 13.11515 36049 ft 411 kts 328°
2026-05-09 00:53 39.54773 13.08716 36059 ft 411 kts 328°
2026-05-09 00:53 39.59963 13.05710 36056 ft 402 kts 321°
2026-05-09 00:54 39.64390 13.01500 36064 ft 393 kts 314°
2026-05-09 00:54 39.68666 12.97080 36061 ft 393 kts 314°
2026-05-09 00:55 39.72953 12.92662 36063 ft 394 kts 314°
2026-05-09 00:55 39.77246 12.88244 36076 ft 394 kts 314°
2026-05-09 00:56 39.81546 12.83818 36067 ft 394 kts 314°
2026-05-09 00:56 39.85841 12.79389 36065 ft 394 kts 314°
2026-05-09 00:57 39.90134 12.74956 36071 ft 394 kts 314°
2026-05-09 00:57 39.94418 12.70524 36069 ft 393 kts 314°
2026-05-09 00:58 39.98701 12.66086 36076 ft 393 kts 314°
2026-05-09 00:58 40.02956 12.61670 36075 ft 393 kts 314°
2026-05-09 00:59 40.07235 12.57222 36073 ft 393 kts 314°
2026-05-09 00:59 40.11510 12.52770 36073 ft 393 kts 314°
2026-05-09 01:00 40.15782 12.48312 36080 ft 393 kts 314°
2026-05-09 01:00 40.20053 12.43851 36081 ft 393 kts 314°
2026-05-09 01:01 40.24321 12.39385 36100 ft 393 kts 314°
2026-05-09 01:01 40.28591 12.34909 36086 ft 393 kts 314°
2026-05-09 01:02 40.32856 12.30431 36076 ft 393 kts 314°
2026-05-09 01:02 40.37117 12.25949 36077 ft 392 kts 314°
2026-05-09 01:03 40.41370 12.21469 36074 ft 392 kts 314°
2026-05-09 01:03 40.45620 12.16984 36074 ft 392 kts 314°
2026-05-09 01:04 40.49871 12.12490 36116 ft 392 kts 314°
2026-05-09 01:04 40.54119 12.07992 36087 ft 392 kts 314°
2026-05-09 01:05 40.58361 12.03493 36070 ft 391 kts 314°
2026-05-09 01:06 40.64708 11.96748 36074 ft 391 kts 314°
2026-05-09 01:06 40.68935 11.92245 36074 ft 391 kts 314°
2026-05-09 01:07 40.73158 11.87740 36076 ft 390 kts 314°
2026-05-09 01:07 40.77379 11.83229 36082 ft 390 kts 314°
2026-05-09 01:08 40.81565 11.78748 36071 ft 390 kts 314°
2026-05-09 01:08 40.85796 11.74211 36076 ft 389 kts 314°
2026-05-09 01:09 40.89999 11.69696 36074 ft 389 kts 314°
2026-05-09 01:09 40.94166 11.65213 36075 ft 389 kts 314°
2026-05-09 01:10 40.98357 11.60695 36093 ft 389 kts 314°
2026-05-09 01:10 41.02549 11.56169 36082 ft 389 kts 314°
2026-05-09 01:11 41.06733 11.51644 36071 ft 388 kts 314°
2026-05-09 01:11 41.10915 11.47114 36076 ft 388 kts 314°
2026-05-09 01:12 41.15094 11.42579 36070 ft 388 kts 314°
2026-05-09 01:12 41.19271 11.38038 36075 ft 388 kts 314°
2026-05-09 01:13 41.23453 11.33483 36077 ft 390 kts 314°
2026-05-09 01:13 41.26966 11.29651 36079 ft 390 kts 314°
2026-05-09 01:14 41.31838 11.24328 36075 ft 390 kts 314°
2026-05-09 01:14 41.35323 11.20514 36077 ft 390 kts 314°
2026-05-09 01:15 41.39509 11.15923 36072 ft 390 kts 314°
2026-05-09 01:15 41.43694 11.11326 36074 ft 390 kts 314°
2026-05-09 01:16 41.47896 11.06731 36084 ft 393 kts 316°
2026-05-09 01:16 41.52460 11.02614 36085 ft 398 kts 320°
2026-05-09 01:17 41.59468 10.96629 36075 ft 399 kts 320°
2026-05-09 01:17 41.64126 10.92601 36073 ft 399 kts 320°
2026-05-09 01:18 41.68770 10.88552 36100 ft 399 kts 320°
2026-05-09 01:18 41.73436 10.84464 36085 ft 402 kts 320°
2026-05-09 01:19 41.78130 10.80345 36081 ft 404 kts 320°
2026-05-09 01:19 41.82834 10.76212 36079 ft 405 kts 320°
2026-05-09 01:20 41.87546 10.72064 36080 ft 405 kts 320°
2026-05-09 01:20 41.92259 10.67909 36086 ft 406 kts 320°
2026-05-09 01:21 41.96986 10.63731 36083 ft 408 kts 320°
2026-05-09 01:21 42.01733 10.59529 36080 ft 409 kts 320°
2026-05-09 01:22 42.06480 10.55321 36086 ft 408 kts 320°
2026-05-09 01:22 42.11213 10.51119 36075 ft 407 kts 320°
2026-05-09 01:23 42.15898 10.46949 36084 ft 407 kts 320°
2026-05-09 01:23 42.20630 10.42727 36085 ft 409 kts 320°
2026-05-09 01:24 42.25379 10.38485 36083 ft 410 kts 320°
2026-05-09 01:24 42.30133 10.34231 36078 ft 410 kts 320°
2026-05-09 01:25 42.34885 10.29957 36087 ft 410 kts 319°
2026-05-09 01:25 42.38999 10.24812 36077 ft 402 kts 309°
2026-05-09 01:26 42.42883 10.19390 36086 ft 401 kts 309°
2026-05-09 01:26 42.46772 10.13992 36077 ft 400 kts 309°
2026-05-09 01:27 42.50652 10.08623 36078 ft 398 kts 309°
2026-05-09 01:27 42.54526 10.03261 36078 ft 397 kts 309°
2026-05-09 01:28 42.58386 9.97909 36088 ft 397 kts 309°
2026-05-09 01:28 42.62261 9.92524 36090 ft 400 kts 309°
2026-05-09 01:29 42.66161 9.87092 36083 ft 403 kts 309°
2026-05-09 01:29 42.70083 9.81625 36088 ft 404 kts 309°
2026-05-09 01:30 42.74000 9.76154 36075 ft 403 kts 309°
2026-05-09 01:30 42.77905 9.70688 36077 ft 402 kts 309°
2026-05-09 01:31 42.81794 9.65234 36078 ft 401 kts 309°
2026-05-09 01:31 42.85688 9.59758 36085 ft 403 kts 309°
2026-05-09 01:32 42.89569 9.54293 36086 ft 404 kts 309°
2026-05-09 01:32 42.93481 9.48773 36082 ft 405 kts 309°
2026-05-09 01:33 42.97395 9.43241 36091 ft 404 kts 308°
2026-05-09 01:33 43.01292 9.37720 36080 ft 404 kts 308°
2026-05-09 01:34 43.05177 9.32203 36080 ft 402 kts 308°
2026-05-09 01:34 43.09061 9.26677 36089 ft 403 kts 308°
2026-05-09 01:35 43.13073 9.21274 36074 ft 410 kts 316°
2026-05-09 01:35 43.17974 9.17115 36079 ft 424 kts 329°
2026-05-09 01:36 43.23477 9.14116 36080 ft 426 kts 331°
2026-05-09 01:36 43.29002 9.11177 36084 ft 427 kts 332°
2026-05-09 01:37 43.34557 9.08181 36095 ft 430 kts 331°
2026-05-09 01:37 43.40126 9.05145 36084 ft 431 kts 331°
2026-05-09 01:38 43.45703 9.02089 36081 ft 431 kts 331°
2026-05-09 01:38 43.51284 8.99024 36082 ft 433 kts 332°
2026-05-09 01:39 43.56889 8.95940 36083 ft 434 kts 332°
2026-05-09 01:39 43.62509 8.92842 36080 ft 435 kts 332°
2026-05-09 01:40 43.68132 8.89737 36079 ft 435 kts 332°
2026-05-09 01:40 43.73799 8.86597 35521 ft 445 kts 332°
2026-05-09 01:41 43.76658 8.85012 34907 ft 441 kts 332°
2026-05-09 01:41 43.79472 8.83452 34183 ft 441 kts 332°
2026-05-09 01:41 43.82319 8.81873 33345 ft 442 kts 333°
2026-05-09 01:41 43.85173 8.80286 32516 ft 442 kts 333°
2026-05-09 01:42 43.88031 8.78695 31699 ft 442 kts 333°
2026-05-09 01:42 43.90891 8.77101 30876 ft 444 kts 334°
2026-05-09 01:42 43.93768 8.75496 29998 ft 447 kts 334°
2026-05-09 01:42 43.96656 8.73883 28941 ft 449 kts 334°
2026-05-09 01:43 43.99560 8.72260 27943 ft 450 kts 334°
2026-05-09 01:43 44.02465 8.70636 26916 ft 451 kts 334°
2026-05-09 01:43 44.05383 8.69002 25900 ft 453 kts 334°
2026-05-09 01:43 44.08284 8.67377 25181 ft 447 kts 334°
2026-05-09 01:44 44.11155 8.65768 24448 ft 443 kts 334°
2026-05-09 01:44 44.14000 8.64170 23694 ft 440 kts 334°
2026-05-09 01:44 44.16829 8.62578 22830 ft 436 kts 334°
2026-05-09 01:44 44.19627 8.61002 22063 ft 431 kts 334°
2026-05-09 01:45 44.22385 8.59446 21327 ft 426 kts 334°
2026-05-09 01:45 44.25122 8.57900 20596 ft 422 kts 335°
2026-05-09 01:45 44.27825 8.56371 19871 ft 417 kts 335°
2026-05-09 01:45 44.30506 8.54852 19169 ft 414 kts 335°
2026-05-09 01:46 44.33165 8.53345 18466 ft 411 kts 335°
2026-05-09 01:46 44.35796 8.51855 17664 ft 409 kts 335°
2026-05-09 01:46 44.38407 8.50325 16910 ft 404 kts 331°
2026-05-09 01:46 44.40632 8.48038 16218 ft 395 kts 312°
2026-05-09 01:47 44.42436 8.45186 15536 ft 390 kts 309°
2026-05-09 01:47 44.44196 8.42324 14835 ft 387 kts 309°
2026-05-09 01:47 44.45946 8.39480 14156 ft 384 kts 310°
2026-05-09 01:47 44.47671 8.36695 13880 ft 371 kts 310°
2026-05-09 01:48 44.49338 8.34018 13662 ft 357 kts 310°
2026-05-09 01:48 44.50932 8.31466 13495 ft 343 kts 310°
2026-05-09 01:48 44.52478 8.28992 13336 ft 331 kts 310°
2026-05-09 01:48 44.53963 8.26614 13198 ft 319 kts 310°
2026-05-09 01:49 44.55381 8.24346 13061 ft 308 kts 310°
2026-05-09 01:49 44.56788 8.22092 12931 ft 298 kts 310°
2026-05-09 01:49 44.58131 8.19937 12698 ft 292 kts 310°
2026-05-09 01:49 44.59465 8.17787 12354 ft 291 kts 310°
2026-05-09 01:50 44.60789 8.15651 12039 ft 289 kts 310°
2026-05-09 01:50 44.62101 8.13529 11715 ft 287 kts 310°
2026-05-09 01:50 44.63408 8.11417 11391 ft 286 kts 310°
2026-05-09 01:50 44.64678 8.09364 11267 ft 278 kts 310°
2026-05-09 01:51 44.65931 8.07337 11135 ft 271 kts 310°
2026-05-09 01:51 44.67146 8.05373 11011 ft 263 kts 310°
2026-05-09 01:51 44.68342 8.03434 10747 ft 262 kts 310°
2026-05-09 01:51 44.69534 8.01507 10463 ft 262 kts 310°
2026-05-09 01:52 44.70726 7.99579 10207 ft 260 kts 310°
2026-05-09 01:52 44.71909 7.97666 9999 ft 257 kts 310°
2026-05-09 01:52 44.73066 7.95794 9883 ft 250 kts 310°
2026-05-09 01:52 44.74191 7.93973 9757 ft 243 kts 310°
2026-05-09 01:53 44.75226 7.92147 9652 ft 236 kts 297°
2026-05-09 01:53 44.75594 7.89940 9290 ft 239 kts 265°
2026-05-09 01:53 44.75088 7.87688 8667 ft 245 kts 242°
2026-05-09 01:53 44.74209 7.85626 8020 ft 245 kts 237°
2026-05-09 01:54 44.73276 7.83628 7380 ft 245 kts 236°
2026-05-09 01:54 44.72342 7.81635 6812 ft 242 kts 237°
2026-05-09 01:54 44.71471 7.79743 6653 ft 220 kts 237°
2026-05-09 01:54 44.70644 7.77928 6019 ft 223 kts 237°
2026-05-09 01:55 44.69790 7.76057 5256 ft 231 kts 236°
2026-05-09 01:55 44.68608 7.74538 4493 ft 235 kts 207°
2026-05-09 01:55 44.67169 7.73486 3983 ft 229 kts 211°
2026-05-09 01:55 44.65865 7.72310 3649 ft 217 kts 213°
2026-05-09 01:56 44.64634 7.71185 3376 ft 205 kts 213°
2026-05-09 01:56 44.63461 7.70131 3120 ft 196 kts 213°
2026-05-09 01:56 44.62332 7.69120 2853 ft 186 kts 213°
2026-05-09 01:56 44.61287 7.68185 2617 ft 169 kts 214°
2026-05-09 01:57 44.60343 7.67337 2387 ft 153 kts 213°
2026-05-09 01:57 44.59481 7.66565 2178 ft 143 kts 213°
2026-05-09 01:57 44.58665 7.65834 1999 ft 137 kts 213°
2026-05-09 01:57 44.57862 7.65117 1794 ft 137 kts 212°
2026-05-09 01:58 44.57058 7.64387 1588 ft 138 kts 213°
2026-05-09 01:58 44.56256 7.63677 1412 ft 139 kts 213°
2026-05-09 01:58 44.55459 7.62960 1251 ft 132 kts 212°
2026-05-09 01:58 44.54784 7.62353 1253 ft 90 kts 213°
2026-05-09 01:59 44.54604 7.62129 1263 ft 19 kts 281°
2026-05-09 01:59 44.54633 7.62051 1256 ft 0 kts 301°
2026-05-09 01:59 44.54641 7.62032 1262 ft 7 kts 301°
2026-05-09 02:00 44.54673 7.61972 1266 ft 7 kts 313°
2026-05-09 02:00 44.54714 7.61933 1255 ft 6 kts 318°
2026-05-09 02:00 44.54721 7.61919 1255 ft 2 kts 311°
2026-05-09 02:00 44.54732 7.61912 1259 ft 4 kts 337°
2026-05-09 02:01 44.54737 7.61910 1258 ft 0 kts 341°